FIN571 EFHK-EFKT

Flight info

Callsign FIN571
Flight time 1h 12m
Altitude 36000
Route TEVRU Y75 EVIMI
Aircraft A320/M-SDE3FGHIRWY/LB1

Departure

Time 2026-04-26 19:11
Airport Helsinki Vantaa Airport (EFHK)

Arrival

Time 2026-04-26 20:23
Airport Kittilä International Airport (EFKT)
Time Latitude Longitude Altitude Speed Heading
2026-04-26 18:48 60.31837 24.96472 167 ft 0 kts 137°
2026-04-26 19:01 60.31845 24.96459 167 ft 2 kts 137°
2026-04-26 19:01 60.31857 24.96435 167 ft 2 kts 137°
2026-04-26 19:01 60.31869 24.96412 167 ft 2 kts 107°
2026-04-26 19:02 60.31879 24.96386 167 ft 2 kts 176°
2026-04-26 19:02 60.31894 24.96395 167 ft 3 kts 246°
2026-04-26 19:02 60.31902 24.96425 167 ft 2 kts 226°
2026-04-26 19:02 60.31907 24.96436 167 ft 0 kts 226°
2026-04-26 19:05 60.31907 24.96435 167 ft 0 kts 226°
2026-04-26 19:07 60.31906 24.96433 167 ft 2 kts 226°
2026-04-26 19:07 60.31872 24.96358 167 ft 13 kts 229°
2026-04-26 19:07 60.31864 24.96157 167 ft 17 kts 296°
2026-04-26 19:07 60.31925 24.95949 170 ft 17 kts 261°
2026-04-26 19:08 60.31833 24.95754 169 ft 22 kts 229°
2026-04-26 19:08 60.31721 24.95503 171 ft 26 kts 228°
2026-04-26 19:08 60.31588 24.95203 170 ft 31 kts 227°
2026-04-26 19:08 60.31431 24.94857 166 ft 36 kts 227°
2026-04-26 19:09 60.31248 24.94457 160 ft 41 kts 228°
2026-04-26 19:09 60.31064 24.94053 158 ft 28 kts 227°
2026-04-26 19:09 60.31076 24.93780 159 ft 22 kts 316°
2026-04-26 19:09 60.31206 24.93804 159 ft 22 kts 43°
2026-04-26 19:10 60.31313 24.94040 161 ft 23 kts 48°
2026-04-26 19:10 60.31466 24.94375 161 ft 63 kts 47°
2026-04-26 19:10 60.31974 24.95486 172 ft 149 kts 47°
2026-04-26 19:10 60.32821 24.97216 596 ft 184 kts 44°
2026-04-26 19:11 60.33729 24.99283 1240 ft 213 kts 43°
2026-04-26 19:11 60.34782 25.01628 2096 ft 231 kts 42°
2026-04-26 19:11 60.35881 25.04066 3079 ft 237 kts 41°
2026-04-26 19:11 60.37010 25.06562 3876 ft 242 kts 41°
2026-04-26 19:12 60.38154 25.09100 4884 ft 245 kts 41°
2026-04-26 19:12 60.39104 25.12028 5864 ft 261 kts 66°
2026-04-26 19:12 60.39151 25.15762 6768 ft 283 kts 98°
2026-04-26 19:12 60.38542 25.19656 7742 ft 285 kts 96°
2026-04-26 19:13 60.38617 25.23505 8656 ft 271 kts 63°
2026-04-26 19:13 60.39609 25.26553 9597 ft 261 kts 39°
2026-04-26 19:13 60.41079 25.28719 10484 ft 258 kts 23°
2026-04-26 19:13 60.42783 25.29865 11306 ft 260 kts
2026-04-26 19:14 60.44631 25.29774 11794 ft 277 kts 347°
2026-04-26 19:14 60.46459 25.28114 12047 ft 302 kts 329°
2026-04-26 19:14 60.48312 25.25756 12237 ft 326 kts 329°
2026-04-26 19:14 60.49607 25.24097 12330 ft 341 kts 329°
2026-04-26 19:15 60.52396 25.20524 12645 ft 363 kts 329°
2026-04-26 19:15 60.54562 25.17758 13236 ft 370 kts 329°
2026-04-26 19:15 60.56757 25.14965 13872 ft 374 kts 329°
2026-04-26 19:15 60.58968 25.12161 14541 ft 376 kts 329°
2026-04-26 19:16 60.61197 25.09328 15174 ft 378 kts 329°
2026-04-26 19:16 60.63435 25.06481 15774 ft 381 kts 329°
2026-04-26 19:16 60.65664 25.03638 16349 ft 384 kts 329°
2026-04-26 19:16 60.67966 25.00820 16906 ft 386 kts 334°
2026-04-26 19:17 60.70524 24.99145 17450 ft 389 kts 351°
2026-04-26 19:17 60.73243 24.98874 17989 ft 392 kts 358°
2026-04-26 19:17 60.75978 24.98832 18465 ft 395 kts 359°
2026-04-26 19:17 60.78733 24.98815 18913 ft 397 kts 359°
2026-04-26 19:18 60.81477 24.98808 19302 ft 401 kts 359°
2026-04-26 19:18 60.84293 24.98805 19613 ft 406 kts 359°
2026-04-26 19:18 60.87131 24.98798 20004 ft 409 kts 359°
2026-04-26 19:18 60.89983 24.98779 20406 ft 411 kts 359°
2026-04-26 19:19 60.92854 24.98754 20805 ft 412 kts 359°
2026-04-26 19:19 60.95732 24.98725 21193 ft 414 kts 359°
2026-04-26 19:19 60.98630 24.98698 21568 ft 416 kts 359°
2026-04-26 19:19 61.01531 24.98675 21931 ft 418 kts 359°
2026-04-26 19:20 61.04441 24.98654 22287 ft 419 kts 359°
2026-04-26 19:20 61.06377 24.98638 22517 ft 420 kts 358°
2026-04-26 19:20 61.10264 24.98598 23015 ft 419 kts 358°
2026-04-26 19:20 61.13180 24.98566 23514 ft 417 kts 358°
2026-04-26 19:21 61.16098 24.98538 23680 ft 421 kts 358°
2026-04-26 19:21 61.19043 24.98516 23885 ft 423 kts 358°
2026-04-26 19:21 61.21995 24.98493 24100 ft 425 kts 358°
2026-04-26 19:21 61.24965 24.98465 24332 ft 427 kts 358°
2026-04-26 19:22 61.27944 24.98439 24532 ft 428 kts 358°
2026-04-26 19:22 61.30923 24.98415 24714 ft 429 kts 358°
2026-04-26 19:22 61.33920 24.98387 24891 ft 430 kts 358°
2026-04-26 19:22 61.36885 24.98359 25051 ft 431 kts 358°
2026-04-26 19:23 61.39893 24.98333 25197 ft 432 kts 358°
2026-04-26 19:23 61.42908 24.98310 25334 ft 433 kts 358°
2026-04-26 19:23 61.45922 24.98285 25539 ft 434 kts 359°
2026-04-26 19:23 61.48953 24.98261 25668 ft 436 kts 359°
2026-04-26 19:24 61.52002 24.98234 25836 ft 437 kts 359°
2026-04-26 19:24 61.55021 24.98204 26018 ft 437 kts 359°
2026-04-26 19:24 61.61097 24.98144 26422 ft 437 kts 359°
2026-04-26 19:25 61.64190 24.98117 26643 ft 436 kts 358°
2026-04-26 19:25 61.65173 24.98107 26714 ft 436 kts 358°
2026-04-26 19:25 61.70258 24.98050 27085 ft 435 kts 358°
2026-04-26 19:25 61.73292 24.98022 27307 ft 435 kts 358°
2026-04-26 19:26 61.76312 24.97998 27541 ft 434 kts 358°
2026-04-26 19:26 61.79305 24.97973 27764 ft 434 kts 358°
2026-04-26 19:26 61.82359 24.97940 28041 ft 433 kts 358°
2026-04-26 19:26 61.85372 24.97903 28308 ft 432 kts 358°
2026-04-26 19:27 61.88367 24.97869 28558 ft 431 kts 358°
2026-04-26 19:27 61.90358 24.97850 28720 ft 431 kts 358°
2026-04-26 19:27 61.93365 24.97823 28969 ft 431 kts 358°
2026-04-26 19:27 61.97327 24.97793 29300 ft 430 kts 358°
2026-04-26 19:28 62.00327 24.97770 29552 ft 430 kts 358°
2026-04-26 19:28 62.02348 24.97755 29726 ft 430 kts 358°
2026-04-26 19:28 62.05338 24.97729 29980 ft 430 kts 358°
2026-04-26 19:28 62.08336 24.97696 30194 ft 430 kts 358°
2026-04-26 19:29 62.11328 24.97665 30405 ft 430 kts 358°
2026-04-26 19:29 62.14303 24.97638 30546 ft 432 kts 358°
2026-04-26 19:29 62.17324 24.97609 30712 ft 433 kts 358°
2026-04-26 19:29 62.20341 24.97579 30915 ft 433 kts 358°
2026-04-26 19:30 62.23360 24.97544 31098 ft 434 kts 358°
2026-04-26 19:30 62.26382 24.97514 31300 ft 434 kts 358°
2026-04-26 19:30 62.29409 24.97488 31495 ft 434 kts 358°
2026-04-26 19:30 62.31424 24.97470 31633 ft 434 kts 358°
2026-04-26 19:31 62.35432 24.97437 31908 ft 434 kts 358°
2026-04-26 19:31 62.38467 24.97415 32107 ft 435 kts 358°
2026-04-26 19:31 62.41498 24.97392 32305 ft 435 kts 358°
2026-04-26 19:31 62.44534 24.97368 32504 ft 435 kts 358°
2026-04-26 19:32 62.47523 24.97340 32706 ft 435 kts 358°
2026-04-26 19:32 62.50554 24.97304 32917 ft 434 kts 358°
2026-04-26 19:32 62.53574 24.97264 33166 ft 433 kts 358°
2026-04-26 19:32 62.56586 24.97229 33385 ft 433 kts 358°
2026-04-26 19:33 62.59608 24.97196 33590 ft 433 kts 358°
2026-04-26 19:33 62.62625 24.97167 33806 ft 433 kts 358°
2026-04-26 19:33 62.65650 24.97140 33984 ft 433 kts 358°
2026-04-26 19:33 62.68669 24.97112 34153 ft 433 kts 358°
2026-04-26 19:34 62.71661 24.97077 34316 ft 434 kts 358°
2026-04-26 19:34 62.74695 24.97040 34491 ft 434 kts 358°
2026-04-26 19:34 62.77724 24.97003 34650 ft 435 kts 358°
2026-04-26 19:34 62.80756 24.96970 34785 ft 436 kts 358°
2026-04-26 19:35 62.83801 24.96938 34930 ft 437 kts 358°
2026-04-26 19:35 62.86806 24.96908 35083 ft 437 kts 358°
2026-04-26 19:35 62.89853 24.96877 35225 ft 438 kts 358°
2026-04-26 19:35 62.92907 24.96845 35381 ft 438 kts 358°
2026-04-26 19:36 62.95967 24.96815 35520 ft 438 kts 358°
2026-04-26 19:36 62.97990 24.96797 35610 ft 438 kts 358°
2026-04-26 19:36 63.02073 24.96764 35786 ft 439 kts 358°
2026-04-26 19:36 63.05132 24.96736 35905 ft 439 kts 358°
2026-04-26 19:37 63.08147 24.96705 36026 ft 439 kts 358°
2026-04-26 19:37 63.11206 24.96675 36162 ft 439 kts 359°
2026-04-26 19:37 63.14267 24.96650 36284 ft 440 kts 359°
2026-04-26 19:37 63.17332 24.96625 36403 ft 440 kts 359°
2026-04-26 19:38 63.20392 24.96595 36518 ft 440 kts 358°
2026-04-26 19:38 63.23457 24.96559 36641 ft 439 kts 358°
2026-04-26 19:38 63.26516 24.96521 36765 ft 439 kts 358°
2026-04-26 19:38 63.29568 24.96486 36889 ft 438 kts 358°
2026-04-26 19:39 63.32619 24.96450 37015 ft 438 kts 358°
2026-04-26 19:39 63.35630 24.96414 37143 ft 437 kts 358°
2026-04-26 19:39 63.38680 24.96379 37266 ft 437 kts 358°
2026-04-26 19:39 63.41720 24.96349 37393 ft 436 kts 358°
2026-04-26 19:40 63.44764 24.96320 37535 ft 436 kts 359°
2026-04-26 19:40 63.47797 24.96292 37671 ft 436 kts 359°
2026-04-26 19:40 63.50834 24.96261 37810 ft 435 kts 359°
2026-04-26 19:40 63.53822 24.96230 37936 ft 435 kts 359°
2026-04-26 19:41 63.59920 24.96165 37945 ft 439 kts 359°
2026-04-26 19:41 63.65024 24.96120 37948 ft 442 kts 359°
2026-04-26 19:42 63.72210 24.96035 37943 ft 444 kts 359°
2026-04-26 19:42 63.78406 24.95951 37961 ft 445 kts 359°
2026-04-26 19:43 63.84615 24.95880 37937 ft 445 kts 359°
2026-04-26 19:43 63.90793 24.95825 37915 ft 446 kts 359°
2026-04-26 19:44 63.96998 24.95766 37945 ft 445 kts 359°
2026-04-26 19:44 64.03190 24.95705 37949 ft 445 kts 359°
2026-04-26 19:45 64.09374 24.95634 37960 ft 444 kts 358°
2026-04-26 19:45 64.15529 24.95554 37969 ft 444 kts 359°
2026-04-26 19:46 64.21725 24.95480 37955 ft 445 kts 359°
2026-04-26 19:46 64.27925 24.95415 37948 ft 445 kts 359°
2026-04-26 19:47 64.33075 24.95368 37942 ft 445 kts 359°
2026-04-26 19:47 64.40281 24.95300 37946 ft 445 kts 359°
2026-04-26 19:48 64.46500 24.95221 37973 ft 445 kts 359°
2026-04-26 19:48 64.52718 24.95146 37939 ft 447 kts 359°
2026-04-26 19:49 64.58905 24.95081 37934 ft 447 kts 359°
2026-04-26 19:49 64.65143 24.95000 37935 ft 448 kts 358°
2026-04-26 19:50 64.71377 24.94916 37942 ft 447 kts 358°
2026-04-26 19:50 64.77608 24.94849 37955 ft 447 kts 358°
2026-04-26 19:51 64.83828 24.94790 37955 ft 447 kts 359°
2026-04-26 19:51 64.90023 24.94743 37947 ft 448 kts 359°
2026-04-26 19:52 64.96272 24.94670 37946 ft 448 kts 359°
2026-04-26 19:52 65.02478 24.94587 37947 ft 448 kts 359°
2026-04-26 19:53 65.08730 24.94509 37942 ft 449 kts 359°
2026-04-26 19:53 65.14982 24.94438 37963 ft 449 kts 359°
2026-04-26 19:54 65.21245 24.94356 37954 ft 450 kts 359°
2026-04-26 19:54 65.27477 24.94276 37954 ft 450 kts 359°
2026-04-26 19:55 65.33744 24.94211 37950 ft 450 kts 359°
2026-04-26 19:55 65.40029 24.94145 37948 ft 451 kts 359°
2026-04-26 19:56 65.46306 24.94061 37952 ft 451 kts 358°
2026-04-26 19:56 65.52588 24.93970 37963 ft 451 kts 359°
2026-04-26 19:57 65.58871 24.93888 37954 ft 452 kts 359°
2026-04-26 19:57 65.65168 24.93826 37950 ft 452 kts 359°
2026-04-26 19:58 65.71482 24.93779 37952 ft 452 kts 359°
2026-04-26 19:58 65.77785 24.93691 37948 ft 453 kts 358°
2026-04-26 19:59 65.84089 24.93595 37952 ft 453 kts 359°
2026-04-26 19:59 65.90354 24.93523 37953 ft 453 kts 359°
2026-04-26 20:00 65.96655 24.93452 37867 ft 451 kts 359°
2026-04-26 20:00 65.99779 24.93415 37604 ft 446 kts 359°
2026-04-26 20:00 66.02883 24.93373 37347 ft 443 kts 358°
2026-04-26 20:01 66.05957 24.93324 37095 ft 440 kts 358°
2026-04-26 20:01 66.09007 24.93273 36846 ft 437 kts 358°
2026-04-26 20:01 66.12049 24.93226 36589 ft 434 kts 358°
2026-04-26 20:01 66.15057 24.93187 36342 ft 430 kts 358°
2026-04-26 20:02 66.18036 24.93157 36101 ft 426 kts 358°
2026-04-26 20:02 66.20958 24.93130 35880 ft 424 kts 359°
2026-04-26 20:02 66.23908 24.93101 35639 ft 423 kts 359°
2026-04-26 20:02 66.24902 24.93091 35563 ft 422 kts 358°
2026-04-26 20:03 66.29767 24.93028 35180 ft 418 kts 358°
2026-04-26 20:03 66.32666 24.92989 34951 ft 415 kts 358°
2026-04-26 20:03 66.35548 24.92951 34718 ft 413 kts 358°
2026-04-26 20:03 66.38391 24.92914 34484 ft 400 kts 358°
2026-04-26 20:04 66.41126 24.92878 34264 ft 384 kts 358°
2026-04-26 20:04 66.43730 24.92841 34041 ft 375 kts 358°
2026-04-26 20:04 66.46327 24.92802 33780 ft 370 kts 358°
2026-04-26 20:04 66.48888 24.92761 33412 ft 365 kts 358°
2026-04-26 20:05 66.51415 24.92725 32891 ft 359 kts 358°
2026-04-26 20:05 66.53897 24.92691 32363 ft 353 kts 358°
2026-04-26 20:05 66.56302 24.92660 31875 ft 348 kts 358°
2026-04-26 20:05 66.58705 24.92627 31364 ft 343 kts 358°
2026-04-26 20:06 66.61078 24.92592 30877 ft 337 kts 358°
2026-04-26 20:06 66.63409 24.92561 30422 ft 332 kts 358°
2026-04-26 20:06 66.65702 24.92534 29949 ft 326 kts 358°
2026-04-26 20:06 66.67953 24.92506 29384 ft 320 kts 358°
2026-04-26 20:07 66.70144 24.92480 28850 ft 315 kts 358°
2026-04-26 20:07 66.72318 24.92455 28305 ft 309 kts 358°
2026-04-26 20:07 66.74468 24.92429 27693 ft 307 kts 358°
2026-04-26 20:07 66.76607 24.92400 27060 ft 306 kts 358°
2026-04-26 20:08 66.78015 24.92378 26645 ft 305 kts 358°
2026-04-26 20:08 66.80139 24.92345 26021 ft 303 kts 358°
2026-04-26 20:08 66.82243 24.92310 25436 ft 301 kts 358°
2026-04-26 20:08 66.84331 24.92279 24848 ft 299 kts 359°
2026-04-26 20:09 66.86376 24.92252 24282 ft 296 kts 359°
2026-04-26 20:09 66.88433 24.92226 23704 ft 294 kts 359°
2026-04-26 20:09 66.90470 24.92202 23056 ft 291 kts 359°
2026-04-26 20:09 66.92494 24.92176 22412 ft 289 kts 359°
2026-04-26 20:10 66.94503 24.92148 21761 ft 288 kts 359°
2026-04-26 20:10 66.96500 24.92117 21124 ft 286 kts 358°
2026-04-26 20:10 66.98490 24.92086 20501 ft 285 kts 358°
2026-04-26 20:10 67.00472 24.92059 19876 ft 283 kts 358°
2026-04-26 20:11 67.02422 24.92032 19296 ft 282 kts 358°
2026-04-26 20:11 67.04385 24.92007 18716 ft 281 kts 358°
2026-04-26 20:11 67.06343 24.91984 18103 ft 280 kts 358°
2026-04-26 20:12 67.10231 24.91939 16820 ft 277 kts 358°
2026-04-26 20:12 67.12158 24.91911 16179 ft 277 kts 358°
2026-04-26 20:12 67.14094 24.91879 15558 ft 277 kts 358°
2026-04-26 20:12 67.16023 24.91849 14948 ft 277 kts 358°
2026-04-26 20:13 67.17927 24.91825 14360 ft 276 kts 358°
2026-04-26 20:13 67.19848 24.91802 13773 ft 276 kts 358°
2026-04-26 20:13 67.21769 24.91775 13114 ft 275 kts 358°
2026-04-26 20:13 67.23685 24.91746 12471 ft 274 kts 358°
2026-04-26 20:14 67.25589 24.91745 11835 ft 273 kts 359°
2026-04-26 20:14 67.27484 24.91978 11227 ft 272 kts
2026-04-26 20:14 67.29362 24.92348 10617 ft 269 kts
2026-04-26 20:14 67.31223 24.92752 10018 ft 267 kts
2026-04-26 20:15 67.33066 24.93153 9390 ft 265 kts
2026-04-26 20:15 67.34895 24.93542 8739 ft 262 kts
2026-04-26 20:15 67.36703 24.93917 8119 ft 259 kts
2026-04-26 20:15 67.38488 24.94274 7502 ft 255 kts
2026-04-26 20:16 67.40250 24.94621 6887 ft 251 kts
2026-04-26 20:16 67.41959 24.94953 6313 ft 246 kts
2026-04-26 20:16 67.43670 24.95283 5666 ft 242 kts
2026-04-26 20:16 67.45314 24.95600 5058 ft 237 kts
2026-04-26 20:17 67.46948 24.95915 4436 ft 233 kts
2026-04-26 20:17 67.48553 24.96227 3873 ft 227 kts
2026-04-26 20:17 67.50084 24.96528 3409 ft 216 kts
2026-04-26 20:17 67.51040 24.96679 3414 ft 196 kts 358°
2026-04-26 20:18 67.52667 24.95963 3500 ft 166 kts 346°
2026-04-26 20:18 67.53769 24.95245 3432 ft 162 kts 346°
2026-04-26 20:18 67.54863 24.94537 3283 ft 162 kts 346°
2026-04-26 20:18 67.55914 24.93860 3125 ft 150 kts 346°
2026-04-26 20:19 67.56913 24.93217 3029 ft 145 kts 346°
2026-04-26 20:19 67.57892 24.92587 2936 ft 144 kts 346°
2026-04-26 20:19 67.58862 24.91963 2800 ft 143 kts 346°
2026-04-26 20:19 67.59822 24.91344 2641 ft 140 kts 346°
2026-04-26 20:20 67.60712 24.90770 2553 ft 131 kts 346°
2026-04-26 20:20 67.61589 24.90204 2434 ft 128 kts 346°
2026-04-26 20:20 67.62456 24.89644 2246 ft 127 kts 346°
2026-04-26 20:20 67.63309 24.89093 2069 ft 125 kts 345°
2026-04-26 20:21 67.64152 24.88547 1886 ft 124 kts 345°
2026-04-26 20:21 67.64975 24.88015 1672 ft 123 kts 345°
2026-04-26 20:21 67.65819 24.87473 1393 ft 127 kts 345°
2026-04-26 20:21 67.66684 24.86917 1182 ft 128 kts 345°
2026-04-26 20:22 67.67547 24.86362 996 ft 128 kts 345°
2026-04-26 20:22 67.68415 24.85810 827 ft 128 kts 344°
2026-04-26 20:22 67.69272 24.85243 670 ft 122 kts 344°
2026-04-26 20:22 67.70024 24.84718 642 ft 100 kts 343°
2026-04-26 20:23 67.70476 24.84427 639 ft 53 kts 346°
2026-04-26 20:23 67.70680 24.84353 644 ft 17 kts 34°
2026-04-26 20:23 67.70736 24.84652 640 ft 19 kts 102°
2026-04-26 20:23 67.70616 24.84798 640 ft 21 kts 165°
2026-04-26 20:24 67.70462 24.84899 639 ft 25 kts 166°
2026-04-26 20:24 67.70284 24.85014 639 ft 28 kts 166°
2026-04-26 20:24 67.70087 24.85139 641 ft 30 kts 165°
2026-04-26 20:24 67.69876 24.85281 639 ft 28 kts 166°
2026-04-26 20:25 67.69689 24.85416 637 ft 24 kts 166°
2026-04-26 20:25 67.69590 24.85487 643 ft 14 kts 158°
2026-04-26 20:25 67.69587 24.85652 639 ft 0 kts 76°